Home > Weather > Dayton > Past weeks

Flag for USA Past Weather in Dayton, Ohio, USA — Yesterday and Last 2 Weeks

Now
85 °F

Sunny.


Feels Like: 84 °F
Forecast: 59 / 88 °F
Wind: 3 mph from North

Location: Dayton / Wright-Patterson Air Force Base

Current Time: Jun 25, 2016 at 3:36:49 PM

Latest Report: Jun 25, 2016 at 2:58 PM


Visibility: 10 mi

Pressure: 30.12 "Hg

Humidity: 36%

Dew Point: 55 °F

Location of DaytonLocation

Past Weather in Dayton — Graph

°F

Dayton Temperature Yesterday

Maximum temperature yesterday: 83 °F (at 4:58 PM)
Minimum temperature yesterday: 65 °F (at 6:58 AM)
Average temperature yesterday: 74 °F

High & Low Weather Summary for the Past Weeks

 TemperatureHumidityPressure
High90 °F (Jun 20, 3:58 PM)100% (Jun 10, 1:00 PM)30.32 "Hg (Jun 10, 1:00 PM)
Low54 °F (Jun 13, 5:58 AM)25% (Jun 12, 6:58 PM)29.72 "Hg (Jun 16, 11:58 AM)
Average75 °F70%30.00 "Hg
* Reported Jun 10 1:00 PM — Jun 25 1:58 PM, Dayton, Weather by CustomWeather, © 2016

Note: Actual official high and low records may vary slightly from our data, if they occured in-between our weather recording intervals... More about our weather records

Advertising

Dayton Weather History for the Previous 24 Hours

Scroll right to see more
 ConditionsComfort  
Time TempWeatherWind HumidityBarometerVisibility
1:58 PM
Sat, Jun 25
84 °FSunny.2 mph38%30.13 "Hg10 mi
12:58 PM82 °FSunny.1 mph41%30.14 "Hg9 mi
11:58 AM79 °FSunny.2 mph43%30.15 "Hg10 mi
10:58 AM76 °FSunny.No wind51%30.16 "Hg10 mi
9:58 AM72 °FSunny.3 mph60%30.16 "Hg10 mi
8:58 AM68 °FSunny.2 mph64%30.15 "Hg10 mi
7:58 AM64 °FSunny.1 mph78%30.14 "Hg10 mi
6:58 AM59 °FClear.5 mph91%30.14 "Hg10 mi
5:58 AM57 °FClear.No wind94%30.13 "Hg10 mi
4:58 AM58 °FClear.No wind94%30.11 "Hg10 mi
3:58 AM62 °FClear.No wind82%30.11 "Hg10 mi
2:58 AM65 °FClear.No wind72%30.10 "Hg10 mi
1:58 AM67 °FClear.1 mph62%30.11 "Hg10 mi
12:58 AM67 °FClear.2 mph68%30.10 "Hg10 mi
11:58 PM
Fri, Jun 24
68 °FClear.7 mph68%30.08 "Hg10 mi
10:58 PM69 °FClear.7 mph69%30.08 "Hg10 mi
9:58 PM72 °FSunny.2 mph67%30.06 "Hg10 mi
8:58 PM77 °FSunny.3 mph55%30.05 "Hg10 mi
7:58 PM81 °FSunny.7 mph46%30.05 "Hg10 mi
6:58 PM83 °FSunny.5 mph42%30.04 "Hg10 mi
5:58 PM83 °FSunny.8 mph42%30.04 "Hg10 mi
4:58 PM83 °FSunny.12 mph41%30.05 "Hg10 mi
3:58 PM83 °FSunny.9 mph47%30.06 "Hg10 mi
Weather by CustomWeather, © 2016

See weather overviewHow to use our weather pages